Torna al catalogo

SL-14 R/B

AttivoPO
NORAD 21820·ROCKET BODY·🇷🇺 Russia

Lanciato Dec 18, 1991 da Plesetsk Cosmodrome

Loading…

Prossimi Passaggi (prossime 24 ore)

TLE

AggiornatoSource: Space-Track

Epoca: Sep 14, 2026, 19:37 UTC

1 21820U 91086B   26257.81796195  .00000438  00000-0  80380-4 0  9993
2 21820  82.5553 283.2527 1560758  49.3958 323.2748 11.96866904509870

Traccia SL-14 R/B in tempo reale con AllMySat

Download on the App Store